Location: *
(47.7167°N, 1.7333°W)
Time: 22:57:46
(UTC+00:00)

COSMOS 2406 - Pass Details

Date: 09 April 2020
Orbit: 842 x 865 km, 71.0° (Epoch: 03 June)

Event Time Altitude Azimuth Distance (km) Brightness Sun altitude
Exits shadow 20:55:01 32° 161° (SSE) 1,427 3.9 -19.9°
Maximum altitude 20:57:13 48° 109° (ESE) 1,105 3.4 -20.2°
Drops below altitude 10° 21:02:40 10° 37° (NE) 2,490 5.7 -20.9°
Sets 21:05:13 0° 32° (NNE) 3,434 6.5 -21.2°
